Location: Fort Frances
(48.6170°N, 93.4170°W)
Time: 23:41:47
(UTC-05:00)

Daily predictions for brighter satellites

Satellite Brightness Start Highest point End
(mag) Time Altitude Azimuth Time Altitude Azimuth Time Altitude Azimuth
Cosmos 1743 4.3 21:37:07 10° NNW 21:40:41 36° W 21:44:12 10° SSW
DEBRIS 4.2 21:36:19 10° WNW 21:42:28 34° SW 21:45:01 10° SSE
Tsikada Rocket 4.3 21:37:39 10° SSE 21:43:48 51° E 21:49:57 10° NNE
Lacrosse 5 2.9 21:39:41 10° WSW 21:44:37 51° NNW 21:49:34 10° NE
Meteor 1-23 Rocket 4.4 21:43:20 10° SSW 21:48:59 84° WNW 21:54:47 10° N
Cosmos 1302 Rocket 4.3 21:43:50 10° NNW 21:49:03 69° WSW 21:54:15 10° S
SL-8 R/B 3.7 21:47:33 10° WSW 21:52:23 77° SSE 21:57:14 10° E
GRACE-1 3.9 21:51:06 10° N 21:54:00 70° E 21:56:51 10° S
Okean 2 3.8 21:49:51 10° SSW 21:54:01 70° WNW 21:58:13 10° N
GRACE-2 3.9 21:51:33 10° N 21:54:27 70° E 21:57:17 10° S
MetOp-B 4.2 21:50:00 10° SSE 21:55:21 79° ENE 22:00:44 10° NNW
SeaSat 1 2.9 21:51:10 10° SSE 21:56:02 62° WSW 22:00:58 10° NW
CZ-4B R/B 3.9 21:51:54 10° NNE 21:56:45 45° E 22:01:41 10° S
Cosmos 2058 Rocket 4.4 21:53:06 10° NNW 21:57:14 40° W 22:01:17 10° SSW
UNK 4.3 21:53:44 10° NNE 21:59:01 58° ESE 22:04:32 10° S
SL-08 RB Rocket 4.4 21:55:20 10° SE 21:59:36 41° ENE 22:03:51 10° N
Terra 3.2 21:56:39 10° ESE 22:00:30 25° ENE 22:04:22 10° N
APEX 4.4 21:58:18 10° NW 22:01:57 43° WSW 22:06:36 10° S
Cosmos 1603 3.9 21:57:35 10° S 22:02:58 49° ESE 22:08:22 10° NE
Cosmos 1346 Rocket 4.5 22:03:05 11° SE 22:05:22 17° E 22:07:59 10° NE
Cosmos 1461 3.6 22:02:58 10° NW 22:07:11 50° WSW 22:11:08 10° SSE
Cosmos 1602 Rocket 3.6 22:04:11 10° S 22:08:40 87° ESE 22:13:11 10° N
PSLV R/B 4.5 22:10:26 10° S 22:13:20 38° W 22:16:17 10° NNW
Cosmos 1825 Rocket 4.4 22:10:25 11° SSE 22:14:12 35° E 22:18:14 10° NNE
Cosmos 2333 Rocket 4.3 22:10:13 10° WSW 22:15:13 31° NW 22:20:15 10° NNE
Cosmos 1812 Rocket 3.6 22:10:53 10° NNW 22:15:17 81° W 22:19:41 10° S
Cosmos 1634 Rocket 4.1 22:16:15 10° N 22:22:24 65° ENE 22:27:54 13° SSE
ATLAS 3B R/B 3.7 22:18:42 10° S 22:25:08 30° ESE 22:31:27 10° NE
Envisat 4.1 22:21:41 10° SSW 22:26:27 40° W 22:31:15 10° NNW
USA 245 4.3 22:20:47 10° SSE 22:26:51 80° WSW 22:32:03 10° NNW
YAOGAN 6 3.0 22:24:55 11° S 22:28:28 63° WSW 22:32:13 10° NNW
Cosmos 1943 3.9 22:23:35 10° S 22:28:39 35° ESE 22:33:46 10° NE
USA 81 4.0 22:28:25 10° N 22:33:45 80° E 22:38:24 14° S
USA 234 3.8 22:30:35 14° SSE 22:36:04 46° SW 22:42:21 10° WNW
Cosmos 1943 Rocket 3.1 22:32:39 10° NNW 22:37:49 37° NE 22:42:15 13° ESE
Cosmos 1766 4.0 22:36:03 10° N 22:39:51 41° ENE 22:42:13 20° SE
ATLAS CENTAUR R/B 4.0 22:38:26 10° W 22:42:54 31° NW 22:47:22 10° NNE
Cosmos 2279 Rocket 4.2 22:41:56 10° N 22:48:08 61° ENE 22:52:42 19° SSE
CZ-4C R/B 3.7 22:51:16 17° S 22:54:27 68° WSW 22:58:32 10° NNW
SAR-Lupe-2 3.5 22:56:08 25° SSE 22:58:08 90° ENE 23:01:46 10° NNW
Cosmos 1953 Rocket 3.5 22:55:36 18° S 22:58:49 73° E 23:03:15 10° NNE
Atlas Centaur 2 4.2 22:53:30 10° SW 22:59:05 20° S 23:00:56 19° SSE
ISS -0.8 23:03:16 11° E 23:03:16 11° E 23:03:23 10° E
CZ-4 R/B 4.2 22:55:55 10° N 23:00:52 73° WNW 23:05:52 10° SSW
H-2A R/B 1.9 22:59:58 21° SSE 23:03:20 89° E 23:08:26 10° NNW
COSMOS 2455 2.8 23:03:17 10° SSW 23:09:18 90° WNW 23:15:23 10° NE
Cosmos 2369 Rocket 2.5 23:03:49 10° NNW 23:09:26 63° WSW 23:13:08 21° S
Cosmos 1953 2.8 23:07:58 10° N 23:11:51 48° ENE 23:13:33 28° SE
Cosmos 2084 4.1 23:10:19 10° NNW 23:14:15 46° NE 23:16:58 19° ESE
IGS 5A 3.5 23:13:13 26° S 23:15:29 80° WSW 23:19:40 10° NNW
ARGOS 4.2 23:10:54 12° SSW 23:15:32 40° W 23:20:39 10° NNW
Cosmos 1805 3.9 23:12:15 10° N 23:16:03 43° ENE 23:17:37 28° SE
Geosat 4.0 23:11:08 10° NNE 23:16:13 88° WNW 23:21:15 10° SSW
Lacrosse 5 rocket 3.1 23:12:42 10° W 23:16:24 34° NNW 23:20:17 10° NE
DMSP B5D2-2 4.1 23:11:55 10° NNE 23:17:13 68° ESE 23:20:42 22° S
Spot 4 3.8 23:14:25 25° SSE 23:17:14 87° WSW 23:22:04 10° NNW
Cosmos-2242 3.1 23:15:25 10° N 23:19:50 73° E 23:21:58 30° SSE
Cosmos 1190 Rocket 4.0 23:17:39 13° SSW 23:22:22 85° ESE 23:27:44 10° NNE
Spot 2 4.3 23:21:20 10° NNE 23:26:03 84° ESE 23:29:20 21° SSW
Lacrosse 5 3.7 23:23:55 10° WNW 23:28:27 32° N 23:32:59 10° ENE
Cosmos 2263 4.5 23:25:24 10° NW 23:30:55 58° WSW 23:34:04 25° S
Lacrosse 4 Rocket 1.3 23:31:19 31° S 23:33:05 61° ESE 23:37:09 10° NE
Cosmos 1758 Rocket 3.9 23:30:16 19° SSW 23:33:19 63° WNW 23:37:41 10° N
COSMOS 2406 4.1 23:32:43 26° SE 23:34:34 32° ESE 23:39:34 10° NE
SL-8 R/B 3.6 23:30:07 10° W 23:34:58 86° S 23:39:27 12° E
CARTOSAT-1 4.4 23:34:42 22° SSW 23:37:06 42° W 23:41:14 10° NNW
Terra 2.5 23:35:13 22° SSW 23:38:00 47° W 23:42:37 10° NNW
Cosmos 676 Rocket 4.0 23:35:11 23° S 23:38:34 73° ESE 23:43:54 10° NNE
Cosmos 1346 Rocket 3.8 23:38:37 16° SW 23:41:27 42° WNW 23:45:14 10° N
Cosmos 1340 4.2 23:41:38 21° E 23:42:00 21° E 23:44:55 10° NE
ALOS 2 4.0 23:42:00 20° ESE 23:43:59 29° ENE 23:47:47 10° N
Cosmos 1140 Rocket 3.8 23:49:34 33° SSE 23:51:33 49° ESE 23:56:36 10° NNE
Cosmos 1689 Rocket 4.1 23:51:33 20° E 23:52:12 21° ENE 23:54:44 10° NNE
